Flag for China Weather past 2 weeks in Chongqing, Chongqing Municipality, China

Now
46 °F

More clouds than sun.


Feels Like: 42 °F
Forecast: 48 / 58 °F
Wind: 8 mph from North

Location: Chongqing Airport

Current Time: Dec 20, 2014 at 6:30:58 PM

Latest Report: Dec 20, 2014 at 5:00 PM


Visibility: 2 mi

Pressure: 30.09 "Hg

Humidity: 66%

Dew point: 36 °F

Location of ChongqingLocation

Historic Weather in Chongqing — Graph

°F

Chongqing temperature yesterday

Maximum temperature yesterday: 54 °F (at 3:00 PM)
Minimum temperature yesterday: 36 °F (at 8:00 AM)
Average temperature yesterday: 44 °F

Past Weeks' High & Low Weather Summary

 TemperatureHumidityPressure
High59 °F (Dec 7, 3:00 PM)93% (Dec 9, 11:00 PM)30.72 "Hg (Dec 9, 11:00 PM)
Low36 °F (Dec 13, 4:00 AM)43% (Dec 17, 3:00 PM)30.07 "Hg (Dec 6, 3:00 PM)
Average46 °F76%30.34 "Hg
* Reported Dec 5 5:00 PM — Dec 20 5:00 PM, Chongqing, Weather by CustomWeather, © 2014

Note: Actual official high and low records may vary slightly from our data, if they occured in-between our weather recording intervals... More about our weather records

Advertising

Chongqing weather history for previous 24 hours

 ConditionsComfort  
Time TempWeatherWind HumidityBarometerVisibility
5:00 PM
Dec 20
46 °FMore clouds than sun.8 mph66%30.09 "Hg2 mi
4:00 PM46 °FMore clouds than sun.8 mph66%30.07 "Hg3 mi
3:00 PM46 °FMore clouds than sun.8 mph66%30.07 "Hg3 mi
2:00 PM46 °FOvercast.8 mph66%30.09 "Hg3 mi
1:00 PM45 °FFog.6 mph71%30.12 "Hg2 mi
12:00 PM45 °FFog.6 mph71%30.15 "Hg2 mi
11:00 AM43 °FFog.6 mph76%30.15 "Hg2 mi
10:00 AM43 °FFog.3 mph76%30.15 "Hg2 mi
9:00 AM41 °FFog.3 mph81%30.15 "Hg2 mi
8:00 AM37 °FFog.1 mph87%30.15 "Hg2 mi
7:00 AM37 °FFog.1 mph81%30.15 "Hg2 mi
6:00 AM39 °FFog.1 mph81%30.15 "Hg2 mi
5:00 AM39 °FFog.1 mph75%30.15 "Hg2 mi
4:00 AM41 °FFog.1 mph70%30.18 "Hg3 mi
3:00 AM41 °FFog.1 mph76%30.18 "Hg2 mi
2:00 AM41 °FFog.3 mph70%30.21 "Hg2 mi
1:00 AM41 °FFog.3 mph70%30.21 "Hg2 mi
12:00 AM41 °FFog.6 mph76%30.21 "Hg2 mi
11:00 PM
Dec 19
43 °FFog.10 mph71%30.24 "Hg2 mi
10:00 PM43 °FHaze.8 mph71%30.24 "Hg3 mi
9:00 PM45 °FClear.10 mph66%30.24 "Hg4 mi
8:00 PM45 °FClear.8 mph71%30.21 "Hg4 mi
7:00 PM46 °FClear.8 mph62%30.21 "Hg4 mi
6:00 PM48 °FHaze.6 mph62%30.21 "Hg3 mi
Weather by CustomWeather, © 2014

See weather overviewHow to use our weather pages